Location: Newark
(34.0131°N, 4.3314°W)
Time: 09:29:46
(UTC+00:00)

A-11 Canister half - Pass Details

Date: 26 October 2019
Orbit: 1514 x 1686 km, 47.2° (Epoch: 11 November)

Event Time Altitude Azimuth Distance (km) Brightness Sun altitude
Rises 05:39:34 0° 303° (WNW) 4,841 - -11.3°
Exits shadow 05:41:55 - 307° (NW) 4,114 10.7 -10.9°
Reaches altitude 10° 05:42:51 10° 308° (NW) 3,830 10.6 -10.7°
Maximum altitude 05:52:21 55° 25° (NNE) 1,832 9.5 -8.7°
Drops below altitude 10° 06:01:28 10° 102° (ESE) 3,700 12.9 -6.9°
Sets 06:04:35 0° 107° (ESE) 4,667 14.1 -6.2°
